TimeHST,TemperatureF,Dew PointF,Humidity,Sea Level PressureIn,VisibilityMPH,Wind Direction,Wind SpeedMPH,Gust SpeedMPH,PrecipitationIn,Events,Conditions,WindDirDegrees,DateUTC
12:53 AM,77.0,64.9,66,30.01,10.0,ENE,10.4,-,N/A,,Mostly Cloudy,70,2013-07-18 10:53:00
1:53 AM,75.9,64.0,67,29.99,10.0,East,8.1,-,N/A,,Scattered Clouds,90,2013-07-18 11:53:00
2:53 AM,75.9,66.0,71,29.98,10.0,East,10.4,-,N/A,,Partly Cloudy,80,2013-07-18 12:53:00
3:53 AM,75.9,66.0,71,29.98,10.0,NE,11.5,-,N/A,,Partly Cloudy,50,2013-07-18 13:53:00
4:53 AM,75.9,64.9,69,29.98,10.0,ENE,12.7,-,N/A,,Partly Cloudy,70,2013-07-18 14:53:00
5:53 AM,75.9,64.9,69,29.99,10.0,ENE,11.5,-,N/A,,Partly Cloudy,60,2013-07-18 15:53:00
6:53 AM,77.0,64.9,66,30.01,10.0,ENE,10.4,-,N/A,,Partly Cloudy,60,2013-07-18 16:53:00
7:53 AM,81.0,64.9,58,30.03,10.0,NE,13.8,19.6,N/A,,Scattered Clouds,50,2013-07-18 17:53:00
8:53 AM,82.0,66.9,60,30.03,10.0,ENE,13.8,24.2,N/A,,Scattered Clouds,60,2013-07-18 18:53:00
9:53 AM,82.9,64.0,53,30.03,10.0,ENE,17.3,25.3,N/A,,Scattered Clouds,60,2013-07-18 19:53:00
10:53 AM,86.0,64.0,48,30.02,10.0,ENE,19.6,26.5,N/A,,Scattered Clouds,60,2013-07-18 20:53:00
11:53 AM,86.0,64.0,48,30.01,10.0,ENE,19.6,28.8,N/A,,Scattered Clouds,70,2013-07-18 21:53:00
12:53 PM,87.1,64.9,48,30.01,10.0,NE,19.6,25.3,N/A,,Scattered Clouds,50,2013-07-18 22:53:00
1:53 PM,87.1,64.0,46,30.00,10.0,ENE,15.0,26.5,N/A,,Scattered Clouds,60,2013-07-18 23:53:00
2:53 PM,86.0,64.0,48,29.99,10.0,ENE,21.9,-,N/A,,Scattered Clouds,70,2013-07-19 00:53:00
3:53 PM,86.0,64.0,48,29.98,10.0,NNE,16.1,20.7,N/A,,Scattered Clouds,30,2013-07-19 01:53:00
4:53 PM,84.0,64.0,51,29.97,10.0,NE,16.1,23.0,N/A,,Scattered Clouds,50,2013-07-19 02:53:00
5:53 PM,82.0,64.9,56,29.98,10.0,NE,15.0,-,N/A,,Scattered Clouds,50,2013-07-19 03:53:00
6:53 PM,80.1,64.9,60,29.99,10.0,NE,8.1,18.4,N/A,,Scattered Clouds,40,2013-07-19 04:53:00
7:53 PM,79.0,66.0,64,30.01,10.0,NE,8.1,-,N/A,,Scattered Clouds,50,2013-07-19 05:53:00
8:53 PM,78.1,66.0,66,30.03,10.0,NNE,3.5,-,N/A,,Scattered Clouds,30,2013-07-19 06:53:00
9:53 PM,78.1,66.0,66,30.05,10.0,NE,5.8,-,N/A,,Scattered Clouds,40,2013-07-19 07:53:00
10:53 PM,77.0,66.9,71,30.06,10.0,NNE,5.8,-,N/A,,Partly Cloudy,30,2013-07-19 08:53:00
11:53 PM,75.9,66.9,74,30.05,10.0,NNE,4.6,-,N/A,,Partly Cloudy,20,2013-07-19 09:53:00